Find Starlink 31919

NORAD ID: 59880 Int'l Des: 2024-098 Owner: SPXS Country: US Constellation: starlink operational
LEOCIRCULAR

当前视图

正在加载3D地球...

About Starlink 31919

Starlink 31919 (NORAD 59880) is a starlink constellation satellite (v2 mini) launched May 24, 2024 by SPXS of US. It operates in LEO, CIRCULAR orbit with a mass of 730.00 kg.

即将过境

Passes for default location (London). Set your location on the main map for personalized predictions.

高度历史

Loading altitude history...

两行轨道根数

1 59880U 24098Y 26263.46244298 .00001856 00000-0 76968-4 0 9991
2 59880 43.0020 258.0627 0001168 268.1317 91.9400 15.27576527131639
Epoch: Sep 20, 2026 • Age: 24 hours

当前状态

高度 483.6 km
远地点 / 近地点 N/A
速度 7.63 km/s
星下点 26.35°N, 121.83°E
发射日期 May 24, 2024
运行时间 2.3 years
类型 internet

技术详情

分类 Payload
质量 730.00 kg
干质量 700.00 kg
长度 0.30 m
跨度 29.00 m
形状 ? Box + pan
制造商 SPXS
平台类型 Starlink V2M
阶段状态 In Orbit
所有者/国家 SPXS/US

Most Searched